星链-37820(STARLINK-37820)

导读

STARLINK-37820(NORAD编号69423)是美国SpaceX公司星链低轨通信星座的成员,隶属于Starlink Gen2卫星批次,大概率为V1.5或更新版本星链卫星,搭载激光星间链路模块,可实现星间直接通信,降低对地面站的依赖。该卫星主要承担全球高速宽带互联网接入服务,面向个人用户、航海、航空等场景提供低时延网络支撑,目前处于正常在轨运行状态,是星链全球组网的组成部分。

基本信息
目录编号:
69423
目录名称:
STARLINK-37820
国际标识:
2026-126D
轨道中心:
EARTH
卫星名称:
星链-37820
卫星全名:
星链-37820(STARLINK-37820)
卫星状态:
在轨 (已飞行90 天)
发射日期:
2026-06-07 UTC
国别 :
美国 (US)
星等 :
--
轨道信息
数据来源 国际轨道数据
星历时间: 2026-09-05T04:44:41+0800
10小时前
查看轨道信息
半长轴: 6843.695km
偏心率: 0.0001543
轨道倾角: 97.286°
近地点辐角 95.164°
升交点赤经 109.252°
平近点角 264.978°
近地点: 464.502km
远地点: 466.614km
周期: 93.906分钟
每日圈数: 15.334402
详细信息
固有亮度:
5
最大亮度:
2.5
卫星平台:
Starlink V1.0
覆盖范围:
全球
运营商:
太空探索技术公司
运营商所在国:
美国
制造商(研发单位):
太空探索技术公司
制造商所在国:
美国
使用方式:
暂无
卫星简介
Starlink 计划是 SpaceX 推出的全球卫星互联网项目,通过发射低轨道卫星,为全球尤其是偏远地区提供高速、低延迟的互联网服务。自 2019 年起,Starlink 已部署数千颗卫星,旨在缩小全球数字鸿沟,推动互联网普及。该项目还为军事、航空等行业提供通信支持,带来广泛经济效益。
2D轨道图
3D轨道图
轨道高度分析图
轨道倾角分析图
轨道综合分析图
查看轨道综合分析图
交会数据列表
事件ID 空间交会对象 最接近时刻(TCA) 交会距离 交会风险概率(CRP) 交会风险指数(CRI) 操作
CDM_260907-090705-246306-942321
2026-09-07T
09:07:44+0000
2.645 km
极远距离
1.586961E-6 低风险 0.39
CDM_260906-040104-945206-942321
2026-09-06T
04:01:39+0000
2.972 km
极远距离
8.02279E-7 极低风险 0.33